• Join FlightAware (Why Join?)
  • Login
  • US Flag 
01:53PM EDT


 

Airport Tracker/Info


-or-


 

Live Flight TrackerFlight Track Log ✈ N632TK ✈ 13-Nov-2013 ✈ KPAE - KBFI

Flight Track Log - Related Links

Times and Time Zones

All times are in EST time to prevent confusion due to time zone crossing. See the N632TK flight status page for this flight to view local times or setup timezone preferences in your user account.

Time Position Orientation Groundspeed Altitude Reporting Facility
EST Latitude Longitude Course Direction KTS MPH feet Rate Location/Type
06:08PM 47.8467 -122.2931 195° South 110 127 2,100  Level Seattle Center
06:09PM 47.8261 -122.3178 219° Southwest 102 117 2,000  Descending Seattle Center
06:10PM 47.8025 -122.3475 220° Southwest 107 123 2,200 120 Climbing Seattle Center
06:11PM 47.7781 -122.3742 216° Southwest 124 143 2,300  Climbing Seattle Center
06:12PM 47.7503 -122.3981 210° Southwest 115 132 2,300  Level Seattle Center
06:12PM 47.7469 -122.4011 212° Southwest 116 133 2,300  Level Seattle Center
06:13PM 47.7208 -122.4211 207° Southwest 119 137 2,300  Level Seattle Center
06:13PM 47.7172 -122.4242 210° Southwest 123 142 2,300  Level Seattle Center
06:14PM 47.6883 -122.4228 178° South 114 131 2,300  Level Seattle Center
06:14PM 47.6844 -122.4258 208° Southwest 112 129 2,300  Level Seattle Center
06:15PM 47.6589 -122.4125 161° South 114 131 2,300  Level Seattle Center
06:15PM 47.6556 -122.4089 144° Southeast 107 123 2,300 -120 Level Seattle Center
06:16PM 47.6308 -122.3894 152° Southeast 94 108 2,200 -240 Descending Seattle Center
06:17PM 47.6136 -122.3728 147° Southeast 87 100 1,900 -480 Descending Seattle Center
06:17PM 47.6133 -122.3731 214° Southwest 84 97 1,800 -540 Descending Seattle Center
06:18PM 47.5917 -122.3550 151° Southeast 89 102 1,400 -540 Descending Seattle Center
06:18PM 47.5903 -122.3528 133° Southeast 90 104 1,300 -540 Descending Seattle Center
06:19PM 47.5700 -122.3364 151° Southeast 90 104 900 -540 Descending Seattle Center
06:19PM 47.5656 -122.3336 157° South 101 116 800 -600 Descending Seattle Center
06:20PM 47.5486 -122.3186 149° Southeast 89 102 300 -540 Descending Seattle Center
06:20PM 47.5489 -122.3200 287° West 97 112 300 -240 Level Seattle Center
06:21PM 47.5272 -122.3022 151° Southeast 86 99 100 -240 Descending Seattle Center